Back to catalog

DFS 1

AliveMilitaryGEO
NORAD 20041·PAYLOAD·🇩🇪 Germany

Launched Jun 5, 1989 from Guiana Space Centre

Loading…

TLE

FreshSource: Space-Track

Epoch: Sep 14, 2026, 01:59 UTC

1 20041U 89041B   26257.08302544 -.00000271  00000-0  00000-0 0  9998
2 20041  13.9480 345.8678 0014114 299.2633  52.2549  1.00657487125384

Track DFS 1 in real time with AllMySat

Download on the App Store